| time (UTC) | temp F | wind direction | speed MPH | gust MPH | rain 1hr in | rain 24hr in | rain mn in | humidity % | barometer mb |
| 20260505001501 | 52 | 196 | 1.0 | 8.0 | 0.00 | 0.00 | 0.00 | 87 | 1010.9 |
| 20260505000002 | 52 | 175 | 2.0 | 6.0 | 0.00 | 0.00 | 0.00 | 87 | 1010.8 |
| 20260504234614 | 53 | 171 | 2.0 | 8.0 | 0.00 | 0.00 | 0.00 | 86 | 1010.7 |
| 20260504233108 | 53 | 193 | 0.0 | 5.0 | 0.00 | 0.00 | 0.00 | 85 | 1010.6 |
| 20260504231559 | 54 | 169 | 1.0 | 8.0 | 0.00 | 0.00 | 0.00 | 83 | 1010.5 |
| 20260504230059 | 54 | 168 | 0.0 | 8.0 | 0.00 | 0.00 | 0.00 | 82 | 1010.6 |
| 20260504224610 | 55 | 175 | 2.0 | 8.0 | 0.00 | 0.00 | 0.00 | 81 | 1010.6 |
| 20260504223057 | 55 | 239 | 1.0 | 4.0 | 0.00 | 0.00 | 0.00 | 80 | 1010.7 |
| 20260504221557 | 56 | 175 | 1.0 | 6.0 | 0.00 | 0.00 | 0.00 | 79 | 1010.8 |
| 20260504220059 | 56 | 194 | 2.0 | 6.0 | 0.00 | 0.00 | 0.00 | 78 | 1010.9 |
| 20260504214600 | 57 | 227 | 1.0 | 5.0 | 0.00 | 0.00 | 0.00 | 78 | 1011.0 |
| 20260504213125 | 57 | 248 | 1.0 | 6.0 | 0.00 | 0.00 | 0.00 | 78 | 1010.9 |
| 20260504211603 | 57 | 234 | 2.0 | 7.0 | 0.00 | 0.00 | 0.00 | 77 | 1010.9 |
| 20260504210055 | 58 | 208 | 1.0 | 7.0 | 0.00 | 0.00 | 0.00 | 76 | 1010.9 |
| 20260504204556 | 58 | 215 | 1.0 | 6.0 | 0.00 | 0.00 | 0.00 | 76 | 1010.9 |
| 20260504203114 | 59 | 231 | 2.0 | 10.0 | 0.00 | 0.00 | 0.00 | 74 | 1010.7 |
| 20260504201552 | 59 | 186 | 2.0 | 8.0 | 0.00 | 0.00 | 0.00 | 74 | 1010.8 |
| 20260504200053 | 59 | 197 | 2.0 | 11.0 | 0.00 | 0.00 | 0.00 | 73 | 1011.0 |
| 20260504194602 | 59 | 167 | 3.0 | 11.0 | 0.00 | 0.00 | 0.00 | 72 | 1011.0 |
| 20260504193057 | 60 | 255 | 2.0 | 8.0 | 0.00 | 0.00 | 0.00 | 72 | 1011.1 |
| 20260504191547 | 60 | 258 | 1.0 | 8.0 | 0.00 | 0.00 | 0.00 | 72 | 1011.1 |
| 20260504190058 | 60 | 147 | 1.0 | 7.0 | 0.00 | 0.00 | 0.00 | 71 | 1011.2 |
| 20260504184548 | 60 | 180 | 3.0 | 10.0 | 0.00 | 0.00 | 0.00 | 71 | 1011.4 |
| 20260504183042 | 60 | 107 | 3.0 | 11.0 | 0.00 | 0.00 | 0.00 | 71 | 1011.5 |
| 20260504181543 | 60 | 161 | 2.0 | 6.0 | 0.00 | 0.00 | 0.00 | 71 | 1011.7 |
| 20260504180039 | 60 | 175 | 2.0 | 9.0 | 0.00 | 0.00 | 0.00 | 73 | 1011.8 |
| 20260504174537 | 59 | 182 | 2.0 | 11.0 | 0.00 | 0.00 | 0.00 | 73 | 1011.9 |
| 20260504173043 | 59 | 169 | 2.0 | 9.0 | 0.00 | 0.00 | 0.00 | 74 | 1012.0 |
| 20260504171532 | 59 | 165 | 3.0 | 10.0 | 0.00 | 0.00 | 0.00 | 77 | 1012.1 |
| 20260504081517 | 48 | 217 | 0.0 | 3.0 | 0.00 | 0.00 | 0.00 | 81 | 1012.5 |
| 20260504044603 | 44 | 279 | 0.0 | 1.0 | 0.00 | 0.00 | 0.00 | 82 | 1011.9 |
| 20260504043054 | 44 | 279 | 0.0 | 0.0 | 0.00 | 0.00 | 0.00 | 80 | 1011.8 |
| 20260504041550 | 43 | 279 | 0.0 | 0.0 | 0.00 | 0.00 | 0.00 | 78 | 1011.8 |
| 20260504040047 | 43 | 279 | 0.0 | 1.0 | 0.00 | 0.00 | 0.00 | 75 | 1011.7 |
| 20260504034553 | 43 | 279 | 0.0 | 0.0 | 0.00 | 0.00 | 0.00 | 72 | 1011.7 |
| 20260504033053 | 43 | 279 | 0.0 | 0.0 | 0.00 | 0.00 | 0.00 | 72 | 1011.6 |
| 20260504031544 | 43 | 279 | 0.0 | 0.0 | 0.00 | 0.00 | 0.00 | 73 | 1011.5 |
| 20260504030042 | 43 | 279 | 0.0 | 1.0 | 0.00 | 0.00 | 0.00 | 75 | 1011.6 |
| 20260504024545 | 44 | 279 | 0.0 | 1.0 | 0.00 | 0.00 | 0.00 | 75 | 1011.5 |
| 20260504023040 | 44 | 279 | 0.0 | 0.0 | 0.00 | 0.00 | 0.00 | 74 | 1011.5 |
| 20260504021541 | 44 | 279 | 0.0 | 0.0 | 0.00 | 0.00 | 0.00 | 73 | 1011.5 |
| 20260504020041 | 45 | 279 | 0.0 | 0.0 | 0.00 | 0.00 | 0.00 | 71 | 1011.5 |
| 20260504014539 | 45 | 279 | 0.0 | 0.0 | 0.00 | 0.00 | 0.00 | 70 | 1011.3 |
| 20260504013039 | 46 | 279 | 0.0 | 0.0 | 0.00 | 0.00 | 0.00 | 68 | 1011.2 |
| 20260504011534 | 47 | 279 | 0.0 | 0.0 | 0.00 | 0.00 | 0.00 | 66 | 1011.2 |
| 20260504010046 | 48 | 279 | 0.0 | 0.0 | 0.00 | 0.00 | 0.00 | 64 | 1010.9 |
| 20260504004531 | 49 | 279 | 0.0 | 0.0 | 0.00 | 0.00 | 0.00 | 60 | 1010.7 |
| 20260504003029 | 50 | 279 | 0.0 | 0.0 | 0.00 | 0.00 | 0.00 | 58 | 1010.6 |